When you browse on this site, cookies collect data to enhance your experience and personalize the content and advertising you see.
Visit our Privacy Policy to learn more. By continuing to use the site, you agree to this use of cookies and data.
  • In Hungary
  • List of Countries
  • For 7 days
  • Water Temperature
  • Satellite Maps
  • Weather Map
  • News
  • Weather Widgets
  • user-avatar
    Login

    Hourly Weather Ordino

    Today, 27 March, Wednesday

    Time Temperature Precipitation Wind Pressure Humidity
    00:00 -3°C° 0 mm 2 mps 634 mmHg 66%
    01:00 -3°C° 0 mm 2 mps 634 mmHg 63%
    02:00 -3°C° 0 mm 2 mps 634 mmHg 60%
    03:00 -3°C° 0 mm 2 mps 634 mmHg 57%
    04:00 -3°C° 0 mm 2 mps 634 mmHg 52%
    05:00 -3°C° 0 mm 2 mps 634 mmHg 46%
    06:00 -3°C° 0 mm 2 mps 634 mmHg 41%
    07:00 +1°C° 0 mm 2 mps 635 mmHg 35%
    08:00 +4°C° 0 mm 2 mps 636 mmHg 29%
    09:00 +7°C° 0 mm 2 mps 638 mmHg 24%
    10:00 +8°C° 0 mm 2 mps 638 mmHg 24%
    11:00 +9°C° 0 mm 2 mps 638 mmHg 24%
    12:00 +10°C° 0 mm 3 mps 638 mmHg 24%
    13:00 +10°C° 0 mm 3 mps 638 mmHg 26%
    14:00 +9°C° 0 mm 3 mps 638 mmHg 28%
    15:00 +9°C° 0 mm 3 mps 637 mmHg 30%
    16:00 +7°C° 0 mm 2 mps 637 mmHg 40%
    17:00 +5°C° 0 mm 2 mps 636 mmHg 50%
    18:00 +3°C° 0 mm 2 mps 636 mmHg 60%
    19:00 +2°C° 0 mm 2 mps 636 mmHg 65%
    20:00 +1°C° 0 mm 2 mps 636 mmHg 71%
    21:00 0°C° 0 mm 1 mps 636 mmHg 77%
    22:00 0°C° 0 mm 1 mps 636 mmHg 74%
    23:00 0°C° 0 mm 1 mps 636 mmHg 71%

    Tomorrow, 28 March, Thursday

    Time Temperature Precipitation Wind Pressure Humidity
    00:00 0°C° 0 mm 1 mps 636 mmHg 68%
    01:00 0°C° 0 mm 1 mps 636 mmHg 68%
    02:00 0°C° 0 mm 1 mps 636 mmHg 69%
    03:00 0°C° 0 mm 1 mps 636 mmHg 69%
    04:00 0°C° 0 mm 1 mps 636 mmHg 71%
    05:00 0°C° 0 mm 1 mps 636 mmHg 72%
    06:00 0°C° 0 mm 1 mps 636 mmHg 74%
    07:00 +2°C° 0 mm 2 mps 637 mmHg 63%
    08:00 +4°C° 0 mm 2 mps 638 mmHg 53%
    09:00 +7°C° 0 mm 2 mps 639 mmHg 43%
    10:00 +8°C° 0 mm 2 mps 640 mmHg 40%
    11:00 +9°C° 0 mm 2 mps 640 mmHg 37%
    12:00 +12°C° 0 mm 2 mps 640 mmHg 33%
    13:00 +10°C° 0 mm 2 mps 640 mmHg 36%
    14:00 +10°C° 0 mm 2 mps 639 mmHg 38%
    15:00 +10°C° 0 mm 2 mps 639 mmHg 41%
    16:00 +8°C° 0 mm 2 mps 638 mmHg 51%
    17:00 +7°C° 0 mm 1 mps 637 mmHg 61%
    18:00 +5°C° 0 mm 1 mps 637 mmHg 71%
    19:00 +4°C° 0 mm 1 mps 637 mmHg 76%
    20:00 +2°C° 0 mm 0 mps 637 mmHg 80%
    21:00 +1°C° 0 mm 0 mps 637 mmHg 85%
    22:00 +1°C° 0 mm 0 mps 637 mmHg 86%
    23:00 +2°C° 0 mm 1 mps 637 mmHg 87%

    Day after tomorrow, 29 March, Friday

    Time Temperature Precipitation Wind Pressure Humidity
    00:00 +1°C° 0 mm 1 mps 636 mmHg 89%
    01:00 +1°C° 0 mm 1 mps 636 mmHg 89%
    02:00 +1°C° 0 mm 1 mps 636 mmHg 89%
    03:00 +1°C° 0 mm 1 mps 636 mmHg 90%
    04:00 +1°C° 0 mm 1 mps 636 mmHg 90%
    05:00 +1°C° 0 mm 1 mps 636 mmHg 90%
    06:00 +1°C° 0 mm 1 mps 636 mmHg 91%
    07:00 +3°C° 0 mm 1 mps 637 mmHg 80%
    08:00 +6°C° 0 mm 1 mps 638 mmHg 69%
    09:00 +7°C° 0 mm 2 mps 639 mmHg 58%
    10:00 +7°C° 0.1 mm 2 mps 639 mmHg 57%
    11:00 +7°C° 0.1 mm 2 mps 639 mmHg 57%
    12:00 +7°C° 0.1 mm 2 mps 638 mmHg 56%
    13:00 +7°C° 0.1 mm 2 mps 638 mmHg 57%
    14:00 +7°C° 0.1 mm 2 mps 638 mmHg 57%
    15:00 +8°C° 0.1 mm 1 mps 637 mmHg 57%
    16:00 +7°C° 0.1 mm 1 mps 637 mmHg 62%
    17:00 +6°C° 0.1 mm 1 mps 637 mmHg 66%
    18:00 +5°C° 0.1 mm 1 mps 636 mmHg 70%
    19:00 +5°C° 0.1 mm 1 mps 636 mmHg 75%
    20:00 +4°C° 0.1 mm 1 mps 636 mmHg 79%
    21:00 +3°C° 0.1 mm 1 mps 636 mmHg 83%
    22:00 +2°C° 0 mm 1 mps 636 mmHg 84%
    23:00 +2°C° 0 mm 1 mps 636 mmHg 85%

    30 March, Saturday

    Time Temperature Precipitation Wind Pressure Humidity
    00:00 +1°C° 0 mm 1 mps 635 mmHg 86%
    01:00 +1°C° 0 mm 1 mps 635 mmHg 85%
    02:00 +1°C° 0 mm 1 mps 635 mmHg 84%
    03:00 +1°C° 0 mm 1 mps 634 mmHg 83%
    04:00 +1°C° 0 mm 1 mps 634 mmHg 82%
    05:00 +1°C° 0 mm 1 mps 634 mmHg 80%
    06:00 +1°C° 0 mm 1 mps 634 mmHg 79%
    07:00 +3°C° 0 mm 1 mps 635 mmHg 65%
    08:00 +5°C° 0 mm 2 mps 636 mmHg 50%
    09:00 +7°C° 0 mm 2 mps 637 mmHg 36%
    10:00 +9°C° 0 mm 2 mps 637 mmHg 33%
    11:00 +10°C° 0 mm 2 mps 637 mmHg 29%
    12:00 +12°C° 0 mm 2 mps 637 mmHg 26%
    13:00 +12°C° 0 mm 2 mps 637 mmHg 27%
    14:00 +10°C° 0 mm 2 mps 636 mmHg 29%
    15:00 +10°C° 0 mm 2 mps 636 mmHg 30%
    16:00 +9°C° 0 mm 1 mps 635 mmHg 39%
    17:00 +7°C° 0 mm 1 mps 634 mmHg 48%
    18:00 +5°C° 0 mm 1 mps 634 mmHg 56%
    19:00 +4°C° 0 mm 1 mps 634 mmHg 62%
    20:00 +3°C° 0 mm 1 mps 633 mmHg 67%
    21:00 +2°C° 0 mm 1 mps 633 mmHg 72%
    22:00 +2°C° 0 mm 1 mps 633 mmHg 72%
    23:00 +2°C° 0 mm 1 mps 633 mmHg 71%

    31 March, Sunday

    Time Temperature Precipitation Wind Pressure Humidity
    00:00 +2°C° 0 mm 1 mps 633 mmHg 71%
    01:00 +2°C° 0 mm 1 mps 632 mmHg 70%
    02:00 +2°C° 0 mm 1 mps 632 mmHg 70%
    03:00 +2°C° 0 mm 1 mps 632 mmHg 69%
    04:00 +2°C° 0 mm 1 mps 632 mmHg 69%
    05:00 +2°C° 0 mm 1 mps 632 mmHg 68%
    06:00 +2°C° 0 mm 1 mps 632 mmHg 68%
    07:00 +4°C° 0 mm 1 mps 633 mmHg 60%
    08:00 +6°C° 0 mm 0 mps 634 mmHg 51%
    09:00 +9°C° 0 mm 0 mps 635 mmHg 43%
    10:00 +10°C° 0 mm 1 mps 635 mmHg 40%
    11:00 +11°C° 0 mm 1 mps 634 mmHg 38%
    12:00 +11°C° 0 mm 1 mps 634 mmHg 36%
    13:00 +11°C° 0 mm 1 mps 634 mmHg 39%
    14:00 +11°C° 0 mm 1 mps 633 mmHg 41%
    15:00 +10°C° 0 mm 1 mps 633 mmHg 44%
    16:00 +9°C° 0 mm 1 mps 632 mmHg 52%
    17:00 +8°C° 0 mm 1 mps 632 mmHg 61%
    18:00 +6°C° 0 mm 0 mps 631 mmHg 69%
    19:00 +5°C° 0.1 mm 0 mps 631 mmHg 74%
    20:00 +4°C° 0.1 mm 0 mps 632 mmHg 78%
    21:00 +4°C° 0.1 mm 0 mps 632 mmHg 82%
    22:00 +4°C° 0 mm 0 mps 631 mmHg 81%
    23:00 +4°C° 0 mm 0 mps 631 mmHg 80%

    1 April, Monday

    Time Temperature Precipitation Wind Pressure Humidity
    00:00 +3°C° 0 mm 0 mps 631 mmHg 79%
    01:00 +3°C° 0 mm 0 mps 631 mmHg 75%
    02:00 +4°C° 0 mm 1 mps 630 mmHg 72%
    03:00 +4°C° 0 mm 1 mps 630 mmHg 68%
    04:00 +4°C° 0 mm 1 mps 630 mmHg 61%
    05:00 +4°C° 0 mm 1 mps 630 mmHg 54%
    06:00 +4°C° 0 mm 1 mps 630 mmHg 48%
    07:00 +5°C° 0 mm 1 mps 631 mmHg 42%
    08:00 +6°C° 0 mm 1 mps 632 mmHg 37%
    09:00 +8°C° 0 mm 1 mps 632 mmHg 32%
    10:00 +8°C° 0 mm 1 mps 632 mmHg 33%
    11:00 +9°C° 0 mm 1 mps 632 mmHg 35%
    12:00 +10°C° 0 mm 1 mps 632 mmHg 37%
    13:00 +9°C° 0.1 mm 1 mps 632 mmHg 41%
    14:00 +9°C° 0.1 mm 1 mps 632 mmHg 45%
    15:00 +8°C° 0.1 mm 1 mps 631 mmHg 49%
    16:00 +7°C° 0.1 mm 1 mps 631 mmHg 54%
    17:00 +7°C° 0.1 mm 1 mps 631 mmHg 59%
    18:00 +6°C° 0.1 mm 1 mps 631 mmHg 64%
    19:00 +5°C° 0 mm 1 mps 631 mmHg 67%
    20:00 +5°C° 0 mm 1 mps 631 mmHg 70%
    21:00 +4°C° 0 mm 1 mps 631 mmHg 73%
    22:00 +4°C° 0 mm 1 mps 631 mmHg 73%
    23:00 +3°C° 0 mm 1 mps 631 mmHg 73%
    Show more